Location: Claremont
(33.9858°S, 18.4575°E)
Time: 11:12:40
(UTC+00:00)

SL-08 RB Rocket - Pass Details

Date: 03 March 2021
Orbit: 646 x 684 km, 97.8° (Epoch: 19 April)

Event Time Altitude Azimuth Distance (km) Brightness Sun altitude
Rises 18:28:13 0° 163° (SSE) 3,000 7.1 -14.6°
Reaches altitude 10° 18:30:30 10° 158° (SSE) 2,079 6.2 -15.1°
Maximum altitude 18:34:56 53° 80° (E) 803 3.7 -15.9°
Drops below altitude 10° 18:39:18 10° 3° (N) 2,047 6.0 -16.8°
Sets 18:41:32 0° 358° (N) 2,951 6.9 -17.2°
